METEOR 2-17 DEB, 38541

Orbit data source: Space-Track

METEOR 2-17 DEB, 38541 is space debris in LEO originally from a launch on Sat, 30 Jan 1988 UTC launched from the Plesetsk Missile And Space Complex (PKMTR). Debris objects in space refer to the collection of defunct objects orbiting the Earth. Examples of debris include non-operational satellites, rocket bodies, and fragments generated from explosions, collisions, or faulty payload assembly.

Loading next visibility...
Identifier
38541, 1988-005AU
Orbit
LEO
Country
Flag of CISCIS
Related business
Manufacturer
Unknown
Mission
Spacecraft
Bus & Motor
Unknown
Mass
Unknown
Launch date (UTC)
1988-01-30 (38 years ago)
Launch vehicle
Unknown
Launch site
Plesetsk Missile And Space Complex (PKMTR)
Object type
Payload
Rocket body
Debris
Shape & HBR
Unknown shape, 0.1 m
Radar Cross Section
Small (<0.1 m²)

Expand to show TLE details & history
Last TLE update: 1 month ago

TLE from 1 month ago
0 METEOR 2-17 DEB
1 38541U 88005AU  25272.20144132  .00006231  00000-0  35449-2 0  9996
2 38541  82.5091  87.2594 0008372 237.2917 122.7451 14.09672555622820
Epoch: 2025-09-29T04:50Z
TLE epoch observation values (Epoch: 2025-09-29T04:50:04.530Z)
Latitude
0.00004°
Longitude
6.53197°
Altitude
866.711 km
Speed
7.417 km/s
True Right ascension
05h 49m 02s
True Declination
0° 00' 00"
Sunlit
Object was in daylight at epoch
Visualization orbit readout
Latitude
Unknown
Longitude
Unknown
Altitude
Unknown
Speed
Unknown
Apparent Right ascension
Unknown
Apparent Declination
Unknown
Sunlit
N/A
Visualization observer readout
Local Sidereal Time
07:17:33
Azimuth
Unknown
Elevation
Unknown
Doppler factor
Unknown
Orbital elements
Apogee altitude
863.669 km
Perigee altitude
851.553 km
Semi-major axis
7,235.748 km
Eccentricity
0.00084
Inclination
82.5091°
RAAN
87.2594°
Arg. of periapsis
237.2917°
True anomaly
122.82574°
Mean anomaly
122.7451°
Eccentric anomaly
122.78543°
Mean motion
3.52629 °/min
Orbital period
102.09 mins
BSTAR
0.0035449
Loading maneuver chart data...
Computing Atmospheric mass density...
Loading historical data...
Loading historical data...
Loading historical data...
Loading historical data...
Loading historical data...
Loading historical data...
Loading historical data...

Documentation

Showing up to 5 results
|